EZY21VB EGPH-EGGD

Flight info

Callsign EZY21VB
Flight time 0h 57m
Altitude 33000
Route GOSAM P600 FENIK L612 NAVSO DCT ADZOP DCT EGTOC DCT NOKIN/N0416F320 DCT KARNO DCT ALHUP DCT LUCSA/N0361F230 N862 WEVBE
Aircraft A320/M-SDE3FGHIRWY/LB1

Departure

Time 2026-04-25 14:55
Airport Edinburgh Airport (EGPH)

Arrival

Time 2026-04-25 15:52
Airport Bristol Airport (EGGD)
Time Latitude Longitude Altitude Speed Heading
2026-04-25 14:06 55.94952 -3.36030 117 ft 0 kts 254°
2026-04-25 14:46 55.94953 -3.36025 116 ft 1 kts 254°
2026-04-25 14:46 55.94958 -3.35994 113 ft 3 kts 254°
2026-04-25 14:46 55.94963 -3.35959 113 ft 3 kts 254°
2026-04-25 14:46 55.94968 -3.35927 112 ft 3 kts 261°
2026-04-25 14:47 55.94969 -3.35894 113 ft 3 kts 295°
2026-04-25 14:47 55.94963 -3.35876 113 ft 3 kts 321°
2026-04-25 14:47 55.94941 -3.35851 113 ft 2 kts 326°
2026-04-25 14:47 55.94937 -3.35847 112 ft 0 kts 323°
2026-04-25 14:49 55.94994 -3.35848 113 ft 16 kts 24°
2026-04-25 14:49 55.95078 -3.35941 113 ft 19 kts 300°
2026-04-25 14:50 55.95126 -3.36178 115 ft 22 kts 288°
2026-04-25 14:50 55.95094 -3.36402 114 ft 15 kts 240°
2026-04-25 14:50 55.95040 -3.36557 113 ft 14 kts 237°
2026-04-25 14:50 55.94991 -3.36701 113 ft 13 kts 239°
2026-04-25 14:51 55.94945 -3.36839 114 ft 13 kts 239°
2026-04-25 14:51 55.94900 -3.36972 115 ft 12 kts 239°
2026-04-25 14:51 55.94857 -3.37099 115 ft 12 kts 238°
2026-04-25 14:51 55.94816 -3.37217 116 ft 11 kts 238°
2026-04-25 14:52 55.94775 -3.37341 115 ft 14 kts 238°
2026-04-25 14:52 55.94710 -3.37530 115 ft 20 kts 239°
2026-04-25 14:52 55.94631 -3.37768 115 ft 24 kts 239°
2026-04-25 14:52 55.94570 -3.37945 116 ft 26 kts 238°
2026-04-25 14:53 55.94430 -3.38354 114 ft 31 kts 239°
2026-04-25 14:53 55.94325 -3.38675 115 ft 21 kts 238°
2026-04-25 14:53 55.94279 -3.38812 115 ft 11 kts 256°
2026-04-25 14:53 55.94323 -3.38905 116 ft 10 kts 328°
2026-04-25 14:54 55.94382 -3.38971 114 ft 10 kts 328°
2026-04-25 14:54 55.94441 -3.38897 114 ft 19 kts 59°
2026-04-25 14:54 55.94633 -3.38332 112 ft 87 kts 59°
2026-04-25 14:54 55.95054 -3.37097 112 ft 143 kts 58°
2026-04-25 14:55 55.95575 -3.35597 771 ft 137 kts 59°
2026-04-25 14:55 55.96102 -3.34157 1461 ft 142 kts 51°
2026-04-25 14:55 55.96869 -3.32879 1891 ft 162 kts 46°
2026-04-25 14:55 55.97761 -3.31436 2251 ft 184 kts 45°
2026-04-25 14:56 55.98772 -3.29810 2627 ft 207 kts 43°
2026-04-25 14:56 55.99994 -3.28293 3043 ft 229 kts 18°
2026-04-25 14:56 56.01621 -3.28300 3445 ft 249 kts 338°
2026-04-25 14:56 56.02970 -3.30236 4126 ft 257 kts 300°
2026-04-25 14:57 56.03417 -3.33284 5102 ft 258 kts 270°
2026-04-25 14:57 56.03243 -3.36513 5751 ft 261 kts 259°
2026-04-25 14:57 56.02752 -3.39636 5956 ft 261 kts 253°
2026-04-25 14:57 56.02157 -3.42682 6005 ft 259 kts 246°
2026-04-25 14:58 56.01329 -3.45548 6008 ft 259 kts 244°
2026-04-25 14:58 56.00479 -3.48408 6011 ft 261 kts 244°
2026-04-25 14:58 55.99625 -3.51270 6009 ft 262 kts 243°
2026-04-25 14:58 55.98765 -3.54149 6012 ft 263 kts 244°
2026-04-25 14:59 55.97910 -3.57006 6007 ft 261 kts 244°
2026-04-25 14:59 55.97054 -3.59865 6005 ft 259 kts 244°
2026-04-25 14:59 55.96208 -3.62692 6006 ft 259 kts 243°
2026-04-25 14:59 55.95356 -3.65547 6004 ft 260 kts 244°
2026-04-25 15:00 55.94503 -3.68402 6000 ft 262 kts 244°
2026-04-25 15:00 55.93648 -3.71263 6008 ft 262 kts 244°
2026-04-25 15:00 55.92793 -3.74117 5995 ft 262 kts 244°
2026-04-25 15:00 55.91938 -3.76968 5977 ft 261 kts 244°
2026-04-25 15:01 55.91086 -3.79808 5972 ft 260 kts 243°
2026-04-25 15:01 55.90228 -3.82655 5974 ft 261 kts 244°
2026-04-25 15:01 55.89368 -3.85510 5964 ft 263 kts 243°
2026-04-25 15:01 55.88503 -3.88372 5968 ft 262 kts 244°
2026-04-25 15:02 55.87641 -3.91219 5970 ft 262 kts 243°
2026-04-25 15:02 55.86781 -3.94058 5969 ft 259 kts 244°
2026-04-25 15:02 55.85924 -3.96894 5972 ft 263 kts 242°
2026-04-25 15:02 55.85056 -3.99763 5972 ft 264 kts 242°
2026-04-25 15:03 55.84182 -4.02643 5974 ft 265 kts 242°
2026-04-25 15:03 55.83305 -4.05528 5973 ft 264 kts 242°
2026-04-25 15:03 55.82429 -4.08397 5973 ft 264 kts 242°
2026-04-25 15:03 55.81555 -4.11250 5969 ft 262 kts 242°
2026-04-25 15:04 55.80678 -4.14110 5973 ft 265 kts 242°
2026-04-25 15:04 55.79800 -4.16980 5974 ft 265 kts 242°
2026-04-25 15:04 55.78794 -4.19716 5977 ft 265 kts 230°
2026-04-25 15:04 55.77385 -4.21893 6287 ft 275 kts 215°
2026-04-25 15:05 55.75822 -4.23806 7367 ft 271 kts 217°
2026-04-25 15:05 55.74263 -4.25715 8308 ft 275 kts 213°
2026-04-25 15:05 55.72481 -4.27042 9182 ft 283 kts 194°
2026-04-25 15:06 55.68551 -4.26291 10783 ft 300 kts 156°
2026-04-25 15:06 55.66627 -4.24486 11091 ft 324 kts 153°
2026-04-25 15:06 55.64628 -4.22516 11746 ft 332 kts 152°
2026-04-25 15:06 55.62599 -4.20496 12542 ft 337 kts 152°
2026-04-25 15:07 55.60547 -4.18455 13404 ft 339 kts 152°
2026-04-25 15:07 55.58490 -4.16416 14255 ft 339 kts 153°
2026-04-25 15:07 55.56422 -4.14382 14999 ft 342 kts 153°
2026-04-25 15:07 55.54329 -4.12337 15728 ft 345 kts 153°
2026-04-25 15:08 55.52219 -4.10280 16450 ft 348 kts 153°
2026-04-25 15:08 55.50085 -4.08201 17137 ft 351 kts 153°
2026-04-25 15:08 55.47938 -4.06112 17842 ft 354 kts 153°
2026-04-25 15:08 55.45767 -4.04005 18537 ft 357 kts 153°
2026-04-25 15:09 55.43576 -4.01882 19091 ft 362 kts 153°
2026-04-25 15:09 55.42105 -4.00459 19480 ft 364 kts 153°
2026-04-25 15:09 55.37634 -3.96129 20703 ft 370 kts 153°
2026-04-25 15:10 55.35371 -3.93939 21307 ft 372 kts 153°
2026-04-25 15:10 55.33092 -3.91739 21905 ft 375 kts 153°
2026-04-25 15:10 55.28482 -3.87307 23127 ft 381 kts 153°
2026-04-25 15:11 55.26148 -3.85072 23701 ft 385 kts 152°
2026-04-25 15:11 55.23785 -3.82810 24162 ft 389 kts 152°
2026-04-25 15:11 55.21322 -3.80832 24658 ft 391 kts 161°
2026-04-25 15:12 55.16111 -3.77940 25648 ft 395 kts 163°
2026-04-25 15:12 55.13486 -3.76503 26122 ft 397 kts 163°
2026-04-25 15:12 55.10845 -3.75057 26592 ft 399 kts 163°
2026-04-25 15:12 55.09087 -3.74097 26901 ft 400 kts 163°
2026-04-25 15:13 55.05519 -3.72150 27495 ft 403 kts 163°
2026-04-25 15:13 55.00135 -3.69218 28366 ft 408 kts 163°
2026-04-25 15:13 54.97417 -3.67737 28799 ft 410 kts 162°
2026-04-25 15:14 54.94688 -3.66253 29196 ft 412 kts 163°
2026-04-25 15:14 54.91932 -3.64764 29490 ft 418 kts 163°
2026-04-25 15:14 54.89142 -3.63259 29843 ft 421 kts 163°
2026-04-25 15:14 54.86339 -3.61745 30210 ft 424 kts 163°
2026-04-25 15:15 54.83516 -3.60219 30525 ft 426 kts 163°
2026-04-25 15:15 54.80673 -3.58684 30827 ft 428 kts 163°
2026-04-25 15:15 54.77857 -3.57169 31123 ft 431 kts 163°
2026-04-25 15:15 54.74953 -3.55606 31412 ft 433 kts 163°
2026-04-25 15:16 54.72081 -3.54060 31724 ft 434 kts 163°
2026-04-25 15:16 54.69201 -3.52514 32111 ft 433 kts 164°
2026-04-25 15:16 54.63450 -3.49439 32770 ft 436 kts 164°
2026-04-25 15:17 54.57629 -3.46330 33208 ft 431 kts 164°
2026-04-25 15:17 54.54836 -3.44836 33215 ft 422 kts 164°
2026-04-25 15:18 54.49259 -3.41873 33212 ft 418 kts 164°
2026-04-25 15:18 54.40917 -3.37468 33213 ft 419 kts 165°
2026-04-25 15:19 54.36249 -3.35005 33214 ft 420 kts 165°
2026-04-25 15:19 54.29762 -3.31592 33211 ft 419 kts 165°
2026-04-25 15:20 54.24186 -3.28669 33207 ft 419 kts 165°
2026-04-25 15:20 54.18602 -3.25868 33198 ft 418 kts 170°
2026-04-25 15:21 54.12853 -3.24710 33201 ft 416 kts 176°
2026-04-25 15:21 54.07083 -3.23809 33202 ft 416 kts 176°
2026-04-25 15:22 54.01312 -3.22905 33204 ft 417 kts 176°
2026-04-25 15:22 53.95605 -3.21041 33206 ft 418 kts 169°
2026-04-25 15:23 53.89925 -3.18881 33200 ft 418 kts 169°
2026-04-25 15:23 53.84244 -3.16727 33200 ft 418 kts 169°
2026-04-25 15:24 53.78565 -3.14577 33204 ft 419 kts 169°
2026-04-25 15:24 53.73801 -3.12783 33205 ft 419 kts 169°
2026-04-25 15:25 53.67186 -3.10294 33193 ft 419 kts 169°
2026-04-25 15:25 53.61495 -3.08155 33200 ft 419 kts 169°
2026-04-25 15:26 53.55792 -3.06033 33204 ft 420 kts 169°
2026-04-25 15:26 53.50096 -3.03905 33205 ft 420 kts 169°
2026-04-25 15:27 53.44396 -3.01779 33205 ft 420 kts 169°
2026-04-25 15:28 53.35837 -2.98621 33181 ft 420 kts 169°
2026-04-25 15:28 53.30131 -2.96513 33184 ft 420 kts 169°
2026-04-25 15:29 53.24429 -2.94415 33187 ft 420 kts 169°
2026-04-25 15:29 53.18722 -2.92323 33180 ft 420 kts 169°
2026-04-25 15:30 53.13015 -2.90239 33179 ft 420 kts 169°
2026-04-25 15:30 53.07251 -2.88478 33186 ft 425 kts 179°
2026-04-25 15:31 53.01256 -2.88807 32816 ft 434 kts 185°
2026-04-25 15:31 52.98254 -2.89073 32238 ft 431 kts 185°
2026-04-25 15:31 52.95266 -2.89335 31666 ft 428 kts 185°
2026-04-25 15:31 52.92300 -2.89594 31128 ft 425 kts 185°
2026-04-25 15:32 52.89364 -2.89878 30621 ft 421 kts 188°
2026-04-25 15:32 52.86484 -2.90528 29909 ft 414 kts 190°
2026-04-25 15:32 52.83652 -2.91193 28932 ft 409 kts 191°
2026-04-25 15:33 52.78075 -2.92501 27888 ft 400 kts 191°
2026-04-25 15:33 52.75332 -2.93144 27438 ft 397 kts 191°
2026-04-25 15:33 52.72607 -2.93781 26982 ft 394 kts 191°
2026-04-25 15:33 52.69892 -2.94215 26520 ft 393 kts 185°
2026-04-25 15:34 52.67170 -2.94428 26053 ft 391 kts 185°
2026-04-25 15:34 52.64488 -2.94645 25566 ft 390 kts 186°
2026-04-25 15:34 52.61778 -2.94874 25072 ft 390 kts 186°
2026-04-25 15:34 52.59953 -2.95031 24735 ft 389 kts 186°
2026-04-25 15:35 52.53688 -2.95564 23695 ft 385 kts 185°
2026-04-25 15:35 52.51037 -2.95782 23282 ft 381 kts 185°
2026-04-25 15:35 52.48394 -2.95998 22775 ft 379 kts 185°
2026-04-25 15:36 52.43164 -2.96423 21846 ft 374 kts 185°
2026-04-25 15:36 52.40578 -2.96639 21395 ft 371 kts 185°
2026-04-25 15:36 52.38009 -2.96853 20956 ft 368 kts 185°
2026-04-25 15:37 52.35456 -2.97063 20523 ft 365 kts 185°
2026-04-25 15:37 52.32928 -2.97269 20098 ft 363 kts 185°
2026-04-25 15:37 52.30421 -2.97473 19685 ft 360 kts 185°
2026-04-25 15:37 52.27929 -2.97672 19269 ft 357 kts 185°
2026-04-25 15:38 52.25451 -2.97871 18860 ft 355 kts 185°
2026-04-25 15:38 52.22986 -2.98070 18433 ft 353 kts 185°
2026-04-25 15:38 52.20537 -2.98272 17970 ft 352 kts 185°
2026-04-25 15:38 52.18102 -2.98471 17541 ft 349 kts 185°
2026-04-25 15:39 52.15686 -2.98665 17112 ft 347 kts 185°
2026-04-25 15:39 52.13279 -2.98861 16692 ft 344 kts 185°
2026-04-25 15:39 52.10893 -2.99058 16301 ft 342 kts 185°
2026-04-25 15:39 52.08526 -2.99251 15947 ft 339 kts 185°
2026-04-25 15:40 52.06984 -2.99372 15863 ft 332 kts 185°
2026-04-25 15:40 52.05472 -2.99490 15784 ft 325 kts 185°
2026-04-25 15:40 52.01758 -2.99786 15591 ft 316 kts 185°
2026-04-25 15:40 51.99571 -2.99964 15466 ft 314 kts 185°
2026-04-25 15:41 51.97387 -3.00139 15347 ft 314 kts 185°
2026-04-25 15:41 51.95209 -3.00314 15225 ft 313 kts 185°
2026-04-25 15:41 51.93025 -3.00490 14799 ft 317 kts 185°
2026-04-25 15:41 51.90804 -3.00671 14287 ft 322 kts 184°
2026-04-25 15:42 51.88551 -3.00856 13774 ft 326 kts 184°
2026-04-25 15:42 51.86288 -3.01040 13271 ft 326 kts 184°
2026-04-25 15:42 51.84027 -3.01221 12857 ft 323 kts 184°
2026-04-25 15:42 51.81778 -3.01398 12401 ft 323 kts 184°
2026-04-25 15:43 51.79547 -3.01575 12044 ft 319 kts 184°
2026-04-25 15:43 51.77362 -3.01750 11610 ft 318 kts 184°
2026-04-25 15:43 51.75158 -3.01929 11177 ft 317 kts 184°
2026-04-25 15:43 51.72963 -3.02108 10738 ft 315 kts 184°
2026-04-25 15:44 51.70787 -3.02284 10329 ft 312 kts 184°
2026-04-25 15:44 51.68635 -3.02455 10053 ft 305 kts 184°
2026-04-25 15:44 51.66555 -3.02619 9834 ft 296 kts 184°
2026-04-25 15:44 51.64507 -3.02781 9457 ft 293 kts 184°
2026-04-25 15:45 51.62481 -3.02941 8988 ft 289 kts 184°
2026-04-25 15:45 51.60485 -3.03101 8267 ft 287 kts 183°
2026-04-25 15:45 51.58490 -3.03262 7538 ft 286 kts 183°
2026-04-25 15:45 51.57816 -3.03316 7289 ft 286 kts 183°
2026-04-25 15:46 51.54539 -3.03582 6281 ft 281 kts 183°
2026-04-25 15:46 51.52588 -3.03740 5698 ft 278 kts 183°
2026-04-25 15:46 51.50659 -3.03891 5231 ft 278 kts 183°
2026-04-25 15:46 51.48734 -3.04038 4814 ft 276 kts 183°
2026-04-25 15:47 51.46826 -3.04184 4426 ft 273 kts 183°
2026-04-25 15:47 51.44935 -3.04334 4036 ft 270 kts 183°
2026-04-25 15:47 51.43101 -3.04484 3919 ft 256 kts 184°
2026-04-25 15:47 51.41366 -3.04623 3827 ft 243 kts 183°
2026-04-25 15:48 51.39722 -3.04751 3724 ft 230 kts 183°
2026-04-25 15:48 51.38186 -3.04475 3634 ft 221 kts 154°
2026-04-25 15:48 51.37133 -3.02769 3553 ft 220 kts 110°
2026-04-25 15:48 51.36880 -3.00368 3463 ft 221 kts 90°
2026-04-25 15:49 51.37050 -2.97973 3381 ft 221 kts 78°
2026-04-25 15:49 51.37287 -2.95569 3291 ft 214 kts 84°
2026-04-25 15:49 51.37412 -2.93227 3072 ft 211 kts 86°
2026-04-25 15:49 51.37510 -2.90888 2802 ft 210 kts 86°
2026-04-25 15:50 51.37574 -2.89311 2616 ft 210 kts 86°
2026-04-25 15:50 51.37695 -2.86323 2262 ft 195 kts 86°
2026-04-25 15:50 51.37778 -2.84235 1992 ft 182 kts 86°
2026-04-25 15:50 51.37855 -2.82329 1769 ft 162 kts 86°
2026-04-25 15:51 51.37924 -2.80612 1546 ft 149 kts 86°
2026-04-25 15:51 51.37947 -2.80064 1469 ft 146 kts 86°
2026-04-25 15:51 51.38062 -2.77435 1197 ft 141 kts 86°
2026-04-25 15:51 51.38115 -2.75874 1012 ft 139 kts 86°
2026-04-25 15:52 51.38173 -2.74314 792 ft 139 kts 85°
2026-04-25 15:52 51.38237 -2.72777 636 ft 133 kts 84°
2026-04-25 15:52 51.38282 -2.71570 616 ft 70 kts 86°
2026-04-25 15:52 51.38302 -2.71036 603 ft 41 kts 88°
2026-04-25 15:53 51.38333 -2.70776 616 ft 15 kts 34°
2026-04-25 15:53 51.38437 -2.70710 611 ft 17 kts 12°
2026-04-25 15:53 51.38469 -2.70837 613 ft 14 kts 267°
2026-04-25 15:53 51.38462 -2.71006 615 ft 17 kts 267°
2026-04-25 15:54 51.38455 -2.71215 615 ft 20 kts 267°
2026-04-25 15:54 51.38449 -2.71375 613 ft 5 kts 266°
2026-04-25 15:54 51.38479 -2.71413 616 ft 7 kts
2026-04-25 15:54 51.38520 -2.71414 613 ft 7 kts 357°
2026-04-25 15:55 51.38546 -2.71416 612 ft 2 kts 356°
2026-04-25 15:55 51.38548 -2.71416 612 ft 0 kts 356°